H1 CPF  1  NER 2017  4 17  9  6071 glonass121           
H2  1000702 9121    36401 2017  4 17  0  0  0 2017  4 20 23 45  0   900 1 1  0 0 0
H9
10 0 57861  41400.00000  0  15129618.217  19891040.178   5036938.980
10 0 57861  42300.00000  0  14686628.888  19181438.365   8136293.128
10 0 57861  43200.00000  0  13913427.727  18260460.297  11077282.045
10 0 57861  44100.00000  0  12797749.571  17186246.525  13802627.736
10 0 57861  45000.00000  0  11340396.248  16020041.563  16259245.464
10 0 57861  45900.00000  0   9555456.261  14823529.154  18399286.569
10 0 57861  46800.00000  0   7469970.085  13656167.123  20181077.686
10 0 57861  47700.00000  0   5123053.972  12572635.146  21569937.447
10 0 57861  48600.00000  0   2564518.058  11620503.749  22538854.474
10 0 57861  49500.00000  0   -146964.000  10838223.188  23069013.414
10 0 57861  50400.00000  0  -2946057.636  10253517.084  23150158.903
10 0 57861  51300.00000  0  -5763250.497   9882248.210  22780790.782
10 0 57861  52200.00000  0  -8527512.681   9727803.654  21968187.161
10 0 57861  53100.00000  0 -11169023.248   9781024.427  20728255.426
10 0 57861  54000.00000  0 -13621849.721  10020681.501  19085214.583
10 0 57861  54900.00000  0 -15826469.343  10414477.070  17071115.597
10 0 57861  55800.00000  0 -17732027.597  10920527.729  14725209.556
10 0 57861  56700.00000  0 -19298240.721  11489265.893  12093176.374
10 0 57861  57600.00000  0 -20496863.977  12065678.259   9226229.453
10 0 57861  58500.00000  0 -21312665.670  12591785.973   6180114.182
10 0 57861  59400.00000  0 -21743867.791  13009261.115   3014020.161
10 0 57861  60300.00000  0 -21802036.567  13262068.543   -210571.360
10 0 57861  61200.00000  0 -21511429.176  13299021.259  -3431082.010
10 0 57861  62100.00000  0 -20907825.739  13076141.307  -6585049.378
10 0 57861  63000.00000  0 -20036897.036  12558726.631  -9611335.073
10 0 57861  63900.00000  0 -18952177.655  11723036.849 -12451304.332
10 0 57861  64800.00000  0 -17712730.454  10557527.041 -15049954.729
10 0 57861  65700.00000  0 -16380600.711   9063577.628 -17356972.710
10 0 57861  66600.00000  0 -15018166.735   7255689.479 -19327698.269
10 0 57861  67500.00000  0 -13685497.524   5161135.559 -20923980.077
10 0 57861  68400.00000  0 -12437827.406   2819082.770 -22114905.616
10 0 57861  69300.00000  0 -11323252.439    279219.513 -22877393.119
10 0 57861  70200.00000  0 -10380743.924  -2400055.407 -23196634.789
10 0 57861  71100.00000  0  -9638561.139  -5153809.005 -23066383.289
10 0 57861  72000.00000  0  -9113128.968  -7913026.849 -22489076.193
10 0 57861  72900.00000  0  -8808426.886 -10607242.430 -21475795.857
10 0 57861  73800.00000  0  -8715914.746 -13167235.854 -20046064.884
10 0 57861  74700.00000  0  -8814998.743 -15527691.252 -18227480.253
10 0 57861  75600.00000  0  -9074018.498 -17629703.733 -16055191.970
10 0 57861  76500.00000  0  -9451714.507 -19423032.414 -13571234.984
10 0 57861  77400.00000  0  -9899115.043 -20868005.912 -10823725.993
10 0 57861  78300.00000  0 -10361763.646 -21937000.807  -7865939.480
10 0 57861  79200.00000  0 -10782193.706 -22615430.898  -4755279.948
10 0 57861  80100.00000  0 -11102545.686 -22902205.218  -1552169.787
10 0 57861  81000.00000  0 -11267215.972 -22809634.992   1681125.811
10 0 57861  81900.00000  0 -11225424.460 -22362792.916   4881713.810
10 0 57861  82800.00000  0 -10933591.002 -21598351.311   7987303.813
10 0 57861  83700.00000  0 -10357418.547 -20562948.003  10937429.288
10 0 57861  84600.00000  0  -9473593.055 -19311149.016  13674634.682
10 0 57861  85500.00000  0  -8271026.468 -17903094.383  16145604.144
10 0 57862      0.00000  0  -6751588.469 -16401927.066  18302208.861
10 0 57862    900.00000  0  -4930293.988 -14871114.159  20102451.985
10 0 57862   1800.00000  0  -2834938.453 -13371773.660  21511291.561
10 0 57862   2700.00000  0   -505192.882 -11960120.927  22501325.810
10 0 57862   3600.00000  0   2008802.199 -10685141.472  23053326.928
10 0 57862   4500.00000  0   4648286.872  -9586589.085  23156613.221
10 0 57862   5400.00000  0   7348098.531  -8693392.725  22809252.754
10 0 57862   6300.00000  0  10039163.032  -8022538.654  22018094.924
10 0 57862   7200.00000  0  12651156.335  -7578473.892  20798629.878
10 0 57862   8100.00000  0  15115225.879  -7353054.838  19174678.992
10 0 57862   9000.00000  0  17366658.470  -7326041.840  17177922.936
10 0 57862   9900.00000  0  19347383.695  -7466117.431  14847276.976
10 0 57862  10800.00000  0  21008209.094  -7732383.806  12228126.130
10 0 57862  11700.00000  0  22310694.539  -8076275.054   9371435.439
10 0 57862  12600.00000  0  23228588.515  -8443802.171   6332753.173
10 0 57862  13500.00000  0  23748767.500  -8778035.069   3171126.750
10 0 57862  14400.00000  0  23871640.548  -9021715.921    -52047.197
10 0 57862  15300.00000  0  23611003.590  -9119892.911  -3274215.818
10 0 57862  16200.00000  0  22993351.102  -9022462.817  -6432882.754
10 0 57862  17100.00000  0  22056675.339  -8686514.934  -9466816.951
10 0 57862  18000.00000  0  20848804.695  -8078377.480 -12317234.157
10 0 57862  18900.00000  0  19425351.693  -7175280.279 -14928928.614
10 0 57862  19800.00000  0  17847357.074  -5966563.713 -17251333.591
10 0 57862  20700.00000  0  16178728.755  -4454383.040 -19239490.988
10 0 57862  21600.00000  0  14483582.475  -2653878.087 -20854912.234
10 0 57862  22500.00000  0  12823594.645   -592800.488 -22066314.893
10 0 57862  23400.00000  0  11255477.068   1689386.977 -22850221.652
10 0 57862  24300.00000  0   9828677.859   4142902.818 -23191411.063
10 0 57862  25200.00000  0   8583403.380   6709474.770 -23083211.861
10 0 57862  26100.00000  0   7549042.727   9324529.012 -22527635.451
10 0 57862  27000.00000  0   6743059.725  11919651.662 -21535343.855
10 0 57862  27900.00000  0   6170398.127  14425222.195 -20125453.188
10 0 57862  28800.00000  0   5823424.749  16773110.936 -18325175.561
10 0 57862  29700.00000  0   5682412.940  18899329.839 -16169305.163
10 0 57862  30600.00000  0   5716546.472  20746527.167 -13699557.092
10 0 57862  31500.00000  0   5885402.145  22266222.468 -10963770.457
10 0 57862  32400.00000  0   6140849.187  23420688.590  -8014989.947
10 0 57862  33300.00000  0   6429285.722  24184401.682  -4910442.712
10 0 57862  34200.00000  0   6694117.990  24544997.691  -1710429.890
10 0 57862  35100.00000  0   6878377.261  24503694.474   1522845.885
10 0 57862  36000.00000  0   6927363.039  24075160.922   4726494.021
10 0 57862  36900.00000  0   6791199.634  23286837.895   7838166.227
10 0 57862  37800.00000  0   6427196.404  22177739.115  10797278.730
10 0 57862  38700.00000  0   5801910.099  20796782.277  13546201.619
10 0 57862  39600.00000  0   4892820.233  19200720.836  16031390.969
10 0 57862  40500.00000  0   3689544.822  17451763.964  18204440.723
10 0 57862  41400.00000  0   2194543.400  15614985.401  20023032.984
10 0 57862  42300.00000  0    423276.125  13755630.922  21451767.549
10 0 57862  43200.00000  0  -1596189.057  11936438.194  22462854.213
10 0 57862  44100.00000  0  -3824105.770  10215082.049  23036654.276
10 0 57862  45000.00000  0  -6210476.824   8641852.622  23162060.835
10 0 57862  45900.00000  0  -8696920.853   7257663.596  22836710.799
10 0 57862  46800.00000  0 -11218900.207   6092473.532  22067024.928
10 0 57862  47700.00000  0 -13708217.166   5164185.623  20868075.614
10 0 57862  48600.00000  0 -16095674.303   4478070.725  19263285.505
10 0 57862  49500.00000  0 -18313788.129   4026736.363  17283963.302
10 0 57862  50400.00000  0 -20299442.798   3790641.309  14968686.256
10 0 57862  51300.00000  0 -21996373.445   3739132.287  12362541.852
10 0 57862  52200.00000  0 -23357375.885   3831957.390   9516243.798
10 0 57862  53100.00000  0 -24346150.937   4021190.816   6485140.049
10 0 57862  54000.00000  0 -24938707.155   4253486.274   3328132.520
10 0 57862  54900.00000  0 -25124264.294   4472562.772    106529.883
10 0 57862  55800.00000  0 -24905620.859   4621816.919  -3117143.851
10 0 57862  56700.00000  0 -24298971.575   4646950.814  -6280361.607
10 0 57862  57600.00000  0 -23333183.669   4498504.190  -9321802.781
10 0 57862  58500.00000  0 -22048563.320   4134183.849 -12182536.599
10 0 57862  59400.00000  0 -20495164.822   3520892.139 -14807156.717
10 0 57862  60300.00000  0 -18730713.728   2636369.083 -17144845.698
10 0 57862  61200.00000  0 -16818231.020   1470379.054 -19150349.475
10 0 57862  62100.00000  0 -14823457.351     25391.943 -20784843.936
10 0 57862  63000.00000  0 -12812184.217  -1683270.261 -22016677.940
10 0 57862  63900.00000  0 -10847602.527  -3627828.446 -22821979.346
10 0 57862  64800.00000  0  -8987777.895  -5768967.601 -23185113.248
10 0 57862  65700.00000  0  -7283356.545  -8057247.478 -23098984.171
10 0 57862  66600.00000  0  -5775596.237 -10434945.624 -22565176.618
10 0 57862  67500.00000  0  -4494803.113 -12838258.055 -21593931.155
10 0 57862  68400.00000  0  -3459238.765 -15199767.937 -20203955.956
10 0 57862  69300.00000  0  -2674542.595 -17451081.279 -18422076.535
10 0 57862  70200.00000  0  -2133693.338 -19525521.421 -16282729.325
10 0 57862  71100.00000  0  -1817511.296 -21360771.144 -13827307.485
10 0 57862  72000.00000  0  -1695680.485 -22901352.718 -11103370.350
10 0 57862  72900.00000  0  -1728247.955 -24100842.423  -8163730.583
10 0 57862  73800.00000  0  -1867537.399 -24923726.548  -5065435.744
10 0 57862  74700.00000  0  -2060396.422 -25346820.307  -1868663.497
10 0 57862  75600.00000  0  -2250682.314 -25360189.201   1364448.298
10 0 57862  76500.00000  0  -2381880.656 -24967533.019   4571013.690
10 0 57862  77400.00000  0  -2399745.040 -24186015.288   7688628.692
10 0 57862  78300.00000  0  -2254844.840 -23045544.521  10656594.498
10 0 57862  79200.00000  0  -1904911.652 -21587536.921  13417109.037
10 0 57862  80100.00000  0  -1316883.367 -19863212.367  15916402.457
10 0 57862  81000.00000  0   -468557.671 -17931495.463  18105793.464
10 0 57862  81900.00000  0    650216.661 -15856610.149  19942645.067
99